Terminal Aerodrome Forecast
Issued by NWS Wilmington, OH

Current Version | Previous Version | Text Only | Print | Product List | Glossary Off
Versions: 1 2 3 4 5 6 7 8 9 10 11 12 13 14 15 16 17 18 19 20 21 22

000
FTUS41 KILN 140252 AAC
TAFILN
TAF AMD
KILN 140252Z 1403/1424 23023G44KT P6SM OVC045
     FM140600 27018G29KT P6SM -DZ OVC025
     FM140900 31012G20KT P6SM OVC025
     FM141100 32010KT P6SM BKN015
     FM141800 32008KT P6SM SCT025
     FM142200 32004KT P6SM BKN090=

USA.gov is the U.S. government's official web portal to all federal, state and local government web resources and services.